This is the latest recevied weather packets stored in our database for station/object LY3FF-10. If no packets are shown the sender has not sent any weather packets the latest 10 day(s).
| Time | Temp. | Humidity | Pressure | Rain* | Wind** | Luminosity | Snow |
|---|---|---|---|---|---|---|---|
| 1787900470 | 17.22° C | 74% | 1006.3 hPa | - | - | - | - |
| 1787899664 | 16.11° C | 75% | 1006.1 hPa | - | - | - | - |
| 1787898824 | 15.56° C | 77% | 1006 hPa | - | - | - | - |
| 1787898075 | 15.56° C | 78% | 1006.2 hPa | - | - | - | - |
| 1787897320 | 14.44° C | 78% | 1006.1 hPa | - | - | - | - |
| 1787896514 | 13.89° C | 80% | 1006.1 hPa | - | - | - | - |
| 1787895675 | 13.33° C | 80% | 1006.2 hPa | - | - | - | - |
| 1787894930 | 12.78° C | 82% | 1006.2 hPa | - | - | - | - |
| 1787894195 | 12.78° C | 82% | 1006.3 hPa | - | - | - | - |
| 1787893393 | 12.22° C | 82% | 1006.2 hPa | - | - | - | - |
| 1787892640 | 11.67° C | 82% | 1006.3 hPa | - | - | - | - |
| 1787891800 | 11.11° C | 83% | 1006.2 hPa | - | - | - | - |
| 1787890945 | 11.11° C | 83% | 1006.3 hPa | - | - | - | - |
| 1787890144 | 10.56° C | 83% | 1006.2 hPa | - | - | - | - |
| 1787889375 | 10.56° C | 83% | 1006.1 hPa | - | - | - | - |
| 1787888560 | 10.56° C | 83% | 1006 hPa | - | - | - | - |
| 1787887805 | 10.56° C | 83% | 1006 hPa | - | - | - | - |
| 1787887060 | 10.56° C | 83% | 1005.9 hPa | - | - | - | - |
| 1787886198 | 10.56° C | 83% | 1005.8 hPa | - | - | - | - |
| 1787885310 | 10.56° C | 83% | 1005.9 hPa | - | - | - | - |
| 1787884521 | 11.11° C | 83% | 1005.8 hPa | - | - | - | - |
| 1787883644 | 11.11° C | 83% | 1005.9 hPa | - | - | - | - |
| 1787882874 | 11.11° C | 83% | 1006 hPa | - | - | - | - |
| 1787882010 | 11.67° C | 82% | 1006 hPa | - | - | - | - |
| 1787881200 | 11.67° C | 82% | 1006.1 hPa | - | - | - | - |
* Rain since midnight (hover to see other rain measurements)
** Current wind speed in m/s (hover to see current wind gust speed)